Wetbulb
49.33 44.77 41.10 43.69 45.35 44.92 43.81 43.24 43.18 46.07 47.82 46.96 46.11 46.43 47.81 51.33 52.03 52.37 54.01 55.56 56.17 57.12 59.58 61.19 62.09 63.19 63.73 64.41 64.47 64.23 63.76 64.19 64.01 62.99 62.32 62.35 61.64 62.25 62.62 63.07 63.13 62.76 62.57 63.03
43.82 39.67 45.98 47.24 46.34 44.97 41.76 40.67 41.12 45.23 46.68 46.02 45.67 45.11 47.99 49.92 50.29 51.96 52.75 54.14 56.00 57.05 57.55 58.75 60.12 61.81 62.53 63.18 64.05 64.11 63.90 64.09 64.48 63.59 63.35 63.00 62.51 62.60 62.89 63.08 62.78 62.74 62.23 62.51
39.95 43.29 47.47 45.30 43.45 43.11 41.71 40.42 39.77 41.88 43.72 45.31 43.94 42.66 45.18 49.00 50.12 51.09 52.32 53.40 55.37 56.96 57.02 57.71 58.84 60.21 61.95 62.34 63.31 63.94 64.35 64.18 64.35 64.29 64.24 63.48 63.53 63.09 62.33 62.31 62.11 62.69 62.58 62.83
41.72 45.75 44.31 42.54 41.32 43.14 39.19 45.05 43.27 41.66 39.44 36.09 43.72 35.84 44.19 47.03 47.12 49.01 50.03 51.92 52.50 54.78 56.85 58.24 58.54 59.22 60.53 62.17 63.78 64.11 64.75 64.43 64.30 64.38 63.68 62.65 61.33 60.49 61.67 62.65 62.97 62.50 62.50 62.44
39.84 41.70 41.73 40.73 41.36 44.78 40.88 44.88 43.62 43.39 41.49 39.25 38.71 34.80 41.26 46.39 44.47 46.92 49.35 51.24 52.52 54.03 54.78 55.86 56.89 58.82 60.67 62.26 63.13 64.30 64.26 64.51 64.55 64.08 63.76 63.13 62.10 63.28 63.91 63.46 63.09 62.55 62.33 61.97
41.50 45.96 44.98 43.62 42.16 45.42 45.97 42.91 42.21 41.57 39.61 32.71 38.33 37.07 39.41 43.39 45.88 47.97 49.81 51.17 52.46 53.58 54.46 55.42 56.68 57.89 58.97 61.70 62.66 63.51 62.94 63.63 64.56 63.73 63.32 62.94 62.52 62.90 62.83 63.12 62.01 62.03 62.46 62.22
37.81 39.60 43.80 46.14 41.21 43.71 43.31 39.59 32.05 30.64 30.27 31.51 40.87 38.04 40.18 46.91 48.52 48.86 48.58 49.99 51.34 53.61 54.28 54.33 54.28 55.39 56.45 59.33 61.28 62.30 62.25 62.36 63.57 63.88 63.10 62.84 62.65 63.45 63.21 63.09 62.10 62.04 62.16 61.56
30.79 28.77 39.25 43.61 42.05 40.63 41.25 40.13 32.93 27.09 29.81 33.83 37.23 34.17 40.56 47.84 49.82 50.55 49.87 50.11 51.18 51.87 53.17 53.05 53.81 54.41 54.84 57.47 59.74 60.77 61.18 61.50 62.59 63.49 63.31 62.86 63.22 63.41 63.45 63.51 63.23 62.92 63.09 61.93
31.06 31.02 41.39 44.09 44.23 43.56 39.83 36.50 42.90 35.77 27.60 31.68 36.58 40.15 43.99 46.16 46.49 47.59 47.97 48.99 49.40 50.97 52.20 52.25 53.37 54.30 54.19 55.51 58.16 60.01 60.50 61.05 61.84 62.19 63.14 63.56 63.46 63.36 63.18 63.48 63.81 63.48 63.07 63.14
36.82 29.86 38.19 41.01 44.53 43.77 42.18 43.57 34.20 34.46 27.99 26.94 33.45 35.88 38.36 42.23 44.83 47.14 48.14 49.58 51.07 51.61 52.21 52.94 53.01 53.49 53.25 53.73 56.22 59.08 60.37 60.49 61.22 62.05 62.48 62.68 63.38 63.48 63.60 63.65 63.13 63.37 63.54 63.11
39.54 36.49 35.68 39.52 37.96 37.58 38.78 36.79 38.16 37.70 34.50 30.98 30.23 35.78 45.52 45.41 46.49 46.75 47.80 48.90 50.45 50.41 51.20 52.09 52.69 53.21 53.10 52.32 53.03 56.50 59.12 59.93 60.24 61.06 61.63 62.14 62.71 63.25 63.46 63.42 63.65 63.65 63.15 62.57
39.65 35.71 30.62 34.23 40.00 42.35 42.47 39.06 38.64 32.77 31.44 34.67 34.35 35.53 43.64 45.81 46.84 48.38 47.56 47.36 48.32 49.13 49.15 49.74 50.87 51.27 49.69 49.92 50.93 53.47 57.14 59.06 59.81 60.48 60.69 61.07 61.76 62.61 62.69 62.72 63.20 63.29 62.29 62.59
38.76 33.66 27.36 31.27 35.46 38.88 37.27 40.25 41.09 39.44 36.48 34.39 32.08 35.74 46.62 47.79 45.43 45.74 46.07 47.47 45.86 45.15 46.75 47.40 47.12 47.60 48.24 47.59 48.95 51.49 54.75 57.34 59.07 59.24 59.49 59.75 60.27 60.72 60.92 61.35 61.77 61.84 61.45 60.77
41.48 35.09 31.06 27.25 32.78 35.93 35.23 37.34 40.03 38.84 33.38 34.77 35.86 38.72 43.70 45.28 44.25 46.55 46.75 45.22 44.78 44.71 44.67 46.15 46.64 46.17 46.09 46.68 47.35 48.97 52.21 55.88 57.49 57.88 58.00 58.29 58.76 59.14 59.51 60.00 60.12 60.19 59.64 59.44
38.79 31.71 33.42 34.48 35.05 35.03 34.31 33.85 34.93 36.27 37.76 34.17 37.87 39.27 42.98 46.03 47.14 48.39 48.89 48.09 44.28 44.82 45.25 45.79 46.11 46.95 46.24 45.38 45.20 45.89 48.90 52.67 56.00 56.02 56.14 56.68 57.49 58.14 58.36 58.22 58.01 58.02 57.69 57.79
39.40 31.33 31.93 28.47 32.74 33.01 31.21 33.91 35.18 36.56 35.17 37.31 39.80 39.50 46.26 48.05 48.86 48.01 48.35 47.98 47.76 48.52 48.54 46.03 46.01 45.11 44.58 44.73 45.11 44.82 45.42 48.01 52.61 54.52 54.10 55.41 54.22 53.81 53.65 53.77 52.54 51.83 51.28 52.15
34.86 33.85 31.27 26.47 31.76 31.64 28.29 33.04 34.92 36.25 38.37 36.57 33.21 40.73 45.72 45.65 46.67 47.61 48.23 48.19 47.72 48.65 49.27 49.38 49.30 46.92 45.46 45.39 45.07 44.17 45.06 45.67 47.74 51.37 51.03 47.11 47.04 45.99 46.46 45.48 43.80 43.25 43.69 43.10
31.77 31.48 31.27 26.65 28.74 19.90 32.86 39.06 39.69 37.40 39.03 40.82 40.77 42.02 44.09 45.53 47.99 49.29 50.54 49.31 48.72 49.02 49.14 48.57 49.24 50.13 46.68 45.89 44.75 45.29 44.40 43.51 43.90 46.10 46.65 45.31 45.54 44.89 41.81 41.20 40.39 41.25 42.92 44.12
35.38 31.08 26.73 23.15 23.77 28.13 30.20 33.95 35.75 36.64 36.95 41.96 40.98 42.40 43.51 44.70 46.15 46.43 49.68 50.86 50.65 50.85 51.01 51.27 51.53 51.45 46.38 45.01 45.38 43.91 42.49 42.45 41.86 41.59 41.99 41.47 41.91 40.14 39.83 39.17 39.98 40.53 40.09 39.61
33.88 34.01 28.47 26.34 20.73 18.38 30.90 36.80 40.47 40.42 30.96 42.36 43.59 43.42 43.67 44.58 39.37 43.36 48.96 50.36 50.69 50.93 50.45 50.91 48.75 45.93 44.23 44.44 42.99 41.43 41.05 41.12 41.18 41.13 40.78 40.64 40.40 39.01 38.99 39.60 38.62 36.60 38.88 37.04
28.29 28.51 25.93 26.24 23.81 27.47 34.92 39.10 42.19 30.19 31.67 42.03 43.96 44.67 44.76 43.14 45.71 48.19 49.95 50.28 51.16 51.46 51.24 50.84 48.58 45.59 45.41 42.34 41.01 40.50 40.85 40.18 42.18 40.11 39.15 38.62 38.62 38.19 39.44 37.64 36.06 36.04 37.31 36.44
26.21 26.73 26.32 27.70 24.24 21.28 38.75 38.06 32.75 30.26 31.86 34.87 33.06 38.98 38.15 42.51 47.08 48.32 49.29 49.51 50.01 50.24 50.20 48.64 47.20 44.55 45.90 40.55 40.17 40.17 40.01 42.10 38.67 38.27 37.60 37.10 36.06 36.40 35.87 35.04 35.08 35.87 35.87 35.04
25.58 30.53 28.77 31.47 31.08 38.71 34.94 29.36 25.88 25.40 25.07 26.66 26.92 30.19 31.11 33.31 38.12 40.54 46.19 48.99 49.67 49.95 48.56 44.20 43.71 43.91 41.43 38.72 40.13 39.30 40.42 37.23 36.30 36.00 34.66 34.24 34.17 34.21 34.57 34.90 35.11 35.77 35.58 35.98
32.00 26.95 29.89 31.44 34.67 34.77 26.86 27.79 24.38 21.44 22.22 23.55 24.72 25.06 27.42 29.53 32.40 34.51 36.77 38.24 40.00 41.23 40.75 37.85 37.54 37.13 36.37 36.12 36.10 39.39 36.11 35.57 34.61 34.13 33.99 33.68 33.59 33.50 34.15 35.57 36.03 36.22 36.19 35.77
21.52 20.69 20.55 23.95 29.35 20.94 27.62 22.08 18.87 19.41 20.88 21.40 21.39 22.28 24.46 27.09 28.34 30.11 30.88 33.19 33.86 34.34 34.38 33.10 35.53 36.28 35.84 34.69 34.97 34.03 34.18 34.63 34.15 34.26 33.81 33.43 33.74 33.81 33.79 34.78 35.79 36.03 35.77 36.97
10.85 9.20 14.93 22.01 12.12 10.73 13.46 17.20 16.95 17.15 16.86 18.15 18.23 18.80 22.69 24.12 24.29 25.00 27.04 30.17 28.66 28.49 29.41 30.61 30.36 31.22 30.84 31.65 32.18 32.52 33.52 34.52 34.15 33.45 32.97 33.50 33.58 33.78 33.68 32.88 31.69 33.78 33.54 34.36
MSLP
1020.12 1020.13 1019.22 1019.26 1019.66 1019.68 1019.63 1018.93 1018.06 1017.39 1017.33 1016.94 1016.12 1015.63 1014.63 1013.96 1013.82 1013.44 1013.00 1012.86 1012.56 1012.52 1012.74 1013.37 1014.00 1014.83 1015.58 1016.12 1016.31 1016.89 1017.55 1018.24 1018.85 1019.13 1019.42 1019.79 1019.97 1020.38 1020.69 1020.99 1021.25 1021.48 1021.77 1022.11
1019.89 1018.43 1017.53 1019.22 1019.63 1019.43 1019.47 1019.01 1018.25 1017.70 1017.44 1017.15 1015.90 1014.87 1013.86 1013.17 1012.89 1012.62 1012.09 1011.78 1011.71 1011.72 1012.08 1012.63 1013.22 1013.85 1014.43 1014.84 1015.35 1015.83 1016.29 1017.02 1017.72 1018.25 1018.53 1018.86 1019.18 1019.41 1019.56 1020.02 1020.50 1020.79 1021.08 1021.46
1018.31 1016.58 1017.80 1018.38 1018.82 1019.48 1018.73 1018.33 1018.26 1017.78 1017.56 1017.12 1015.99 1014.07 1012.52 1011.58 1011.54 1011.25 1010.95 1010.70 1010.56 1010.32 1010.79 1011.21 1011.67 1012.51 1013.23 1013.66 1013.92 1014.49 1014.98 1015.52 1016.34 1017.01 1017.62 1018.09 1018.45 1018.76 1018.99 1019.13 1019.54 1019.88 1020.33 1020.68
1017.86 1017.26 1017.31 1018.03 1018.49 1019.12 1018.24 1017.91 1018.07 1018.27 1018.21 1016.86 1016.18 1013.17 1011.08 1010.50 1010.33 1010.07 1009.83 1009.70 1009.39 1009.22 1009.57 1009.91 1010.34 1011.16 1011.63 1012.03 1012.83 1013.38 1013.70 1014.24 1014.87 1015.77 1016.36 1016.84 1016.97 1017.18 1017.57 1017.98 1018.57 1018.97 1019.52 1019.85
1016.30 1016.29 1016.83 1017.32 1017.20 1018.83 1018.26 1017.95 1017.98 1017.94 1017.52 1017.13 1016.39 1015.16 1009.79 1010.13 1009.09 1008.69 1008.32 1008.36 1008.24 1008.24 1008.70 1008.85 1009.02 1009.38 1009.77 1010.59 1011.29 1011.78 1012.69 1013.17 1013.76 1014.51 1014.85 1015.42 1015.88 1016.00 1016.43 1017.09 1017.55 1018.10 1018.49 1018.92
1016.41 1016.47 1016.40 1016.23 1017.10 1017.96 1017.85 1018.14 1018.07 1017.78 1017.45 1015.95 1014.06 1013.53 1009.63 1008.17 1007.38 1007.33 1007.55 1007.39 1007.27 1007.34 1007.64 1007.82 1007.96 1008.45 1008.93 1009.61 1010.24 1010.92 1011.58 1011.98 1012.71 1013.31 1013.73 1014.00 1014.25 1014.85 1015.50 1015.95 1016.56 1017.09 1017.45 1017.87
1015.78 1015.46 1015.70 1016.17 1016.46 1017.33 1017.34 1017.11 1017.34 1017.16 1016.33 1013.70 1012.09 1012.07 1007.97 1006.73 1006.65 1006.63 1006.50 1006.40 1006.31 1006.29 1006.77 1007.13 1007.43 1007.61 1007.86 1008.45 1009.16 1009.76 1010.33 1010.74 1011.54 1012.34 1012.72 1012.95 1013.23 1013.75 1014.01 1014.61 1015.26 1015.74 1016.12 1016.57
1015.53 1015.25 1014.96 1014.73 1014.83 1014.84 1014.98 1015.44 1015.70 1014.99 1014.39 1012.34 1011.84 1009.79 1006.45 1006.22 1006.04 1006.07 1005.90 1005.71 1005.87 1006.02 1006.28 1006.61 1006.74 1006.86 1007.12 1007.60 1008.12 1008.64 1009.09 1009.53 1010.29 1010.83 1011.28 1011.70 1012.26 1012.65 1013.02 1013.43 1013.92 1014.44 1014.74 1015.26
1014.43 1013.83 1013.64 1013.78 1014.29 1014.70 1014.33 1014.70 1013.95 1014.33 1014.91 1012.81 1010.22 1007.71 1006.55 1005.98 1005.49 1005.54 1005.20 1005.07 1005.25 1005.41 1005.53 1005.78 1006.00 1005.98 1006.15 1006.68 1007.13 1007.54 1008.04 1008.63 1009.18 1009.63 1010.05 1010.62 1011.29 1011.81 1011.95 1012.35 1012.82 1013.24 1013.85 1014.26
1014.12 1013.68 1013.25 1013.82 1014.42 1014.15 1013.55 1013.92 1015.01 1014.72 1013.97 1012.17 1009.51 1006.76 1004.81 1005.00 1004.62 1004.75 1004.53 1004.48 1004.67 1005.01 1005.20 1005.24 1005.34 1005.40 1005.66 1005.81 1006.34 1006.86 1007.05 1007.33 1007.91 1008.47 1009.05 1009.55 1010.06 1010.62 1010.98 1011.48 1012.02 1012.31 1012.82 1013.52
1014.45 1014.08 1013.55 1013.49 1013.22 1012.72 1013.56 1013.56 1014.00 1013.78 1013.30 1011.12 1008.75 1005.21 1003.78 1003.52 1003.88 1003.66 1003.80 1004.10 1004.44 1004.78 1004.64 1004.46 1004.49 1004.70 1005.10 1005.42 1005.85 1006.14 1006.51 1006.88 1007.21 1007.69 1008.18 1008.76 1009.20 1009.82 1010.35 1010.59 1010.97 1011.46 1012.12 1012.68
1013.93 1014.52 1014.16 1013.49 1013.46 1013.24 1012.53 1012.67 1013.48 1013.18 1012.36 1011.30 1008.69 1005.43 1004.06 1003.38 1003.20 1003.26 1003.81 1004.03 1004.32 1004.54 1004.55 1004.33 1004.20 1004.38 1004.74 1004.80 1005.14 1005.51 1005.88 1006.18 1006.46 1006.99 1007.57 1007.94 1008.42 1008.94 1009.37 1009.79 1010.18 1010.87 1011.35 1012.00
1014.01 1014.23 1014.43 1013.68 1013.65 1013.60 1012.53 1012.00 1012.25 1012.29 1011.82 1009.90 1008.49 1004.63 1003.80 1003.52 1003.69 1003.67 1003.60 1003.79 1004.02 1004.27 1004.38 1004.27 1004.25 1004.25 1004.28 1004.17 1004.62 1004.98 1005.26 1005.48 1006.00 1006.44 1006.72 1007.14 1007.57 1008.07 1008.53 1009.03 1009.53 1010.11 1010.66 1011.33
1014.08 1013.86 1013.66 1012.93 1012.14 1012.42 1012.44 1011.93 1011.61 1011.76 1011.33 1009.72 1007.98 1005.19 1002.59 1003.43 1003.66 1003.05 1003.01 1003.40 1003.76 1004.00 1004.05 1003.94 1003.88 1003.92 1004.38 1004.44 1004.33 1004.37 1004.78 1005.06 1005.51 1005.91 1006.09 1006.29 1006.75 1007.23 1007.82 1008.40 1008.93 1009.47 1010.06 1010.63
1014.27 1013.79 1013.75 1013.09 1012.84 1012.52 1012.50 1011.88 1011.93 1011.22 1010.44 1009.58 1007.47 1005.37 1001.77 1002.41 1003.25 1003.02 1003.00 1003.14 1003.58 1003.45 1003.35 1003.36 1003.43 1003.51 1003.59 1004.13 1004.40 1004.34 1004.22 1004.58 1005.04 1005.59 1005.91 1005.96 1006.35 1006.76 1007.36 1007.91 1008.48 1009.11 1009.62 1010.04
1013.98 1013.82 1013.78 1013.38 1012.71 1012.24 1011.55 1011.00 1010.81 1010.61 1010.29 1009.36 1007.37 1005.35 1001.98 1000.78 1003.02 1002.77 1002.72 1002.96 1002.47 1002.29 1001.83 1002.36 1002.77 1002.72 1003.02 1003.04 1003.51 1004.04 1004.18 1004.41 1004.68 1005.03 1005.42 1005.77 1006.23 1006.62 1007.06 1007.69 1008.40 1009.01 1009.49 1009.90
1014.05 1014.07 1014.09 1012.70 1012.24 1011.90 1010.94 1008.84 1009.19 1008.90 1008.72 1008.17 1007.45 1003.50 1000.26 1002.33 1002.26 1002.27 1002.49 1002.33 1001.91 1001.64 1001.79 1001.53 1001.67 1001.81 1002.05 1002.60 1002.63 1003.33 1003.81 1004.19 1004.23 1004.30 1004.89 1005.49 1006.05 1006.58 1007.10 1007.69 1008.39 1008.98 1009.54 1009.98
1014.26 1014.46 1014.23 1013.18 1012.85 1010.97 1007.98 1007.75 1007.26 1006.93 1006.55 1006.79 1005.90 1003.42 1001.36 1001.38 1000.37 1002.23 1002.08 1001.42 1000.91 1001.04 1001.22 1001.31 1001.01 1000.67 1001.28 1001.73 1002.27 1002.30 1003.22 1003.93 1004.36 1004.44 1004.74 1005.24 1005.88 1006.49 1007.18 1007.95 1008.61 1009.17 1009.64 1010.13
1013.93 1014.27 1013.82 1013.18 1011.91 1009.69 1007.50 1006.54 1006.68 1006.14 1004.55 1005.40 1004.64 1002.26 1000.71 999.24 1002.93 1000.75 999.41 999.34 999.33 1000.12 1000.00 999.73 999.78 1000.12 1000.57 1000.70 1001.09 1002.08 1002.69 1003.53 1004.02 1004.03 1004.31 1004.72 1005.28 1006.25 1007.13 1007.88 1008.61 1009.34 1009.88 1010.44
1014.00 1014.10 1014.03 1012.77 1011.86 1009.50 1003.89 1005.73 1005.54 1005.93 1003.83 1003.46 1004.14 1002.58 1001.15 1000.25 1002.20 997.34 995.88 998.36 998.21 998.21 998.13 998.54 999.02 999.58 1000.11 1000.09 1001.00 1001.73 1002.37 1002.80 1003.13 1003.34 1003.78 1004.58 1005.00 1005.68 1006.71 1007.58 1008.45 1009.27 1009.90 1010.53
1013.68 1013.52 1012.85 1011.82 1011.39 1008.92 1004.12 1006.34 1006.79 1007.37 1004.15 1003.12 1003.46 1002.10 1001.10 1000.79 1000.07 995.90 997.36 997.31 997.26 997.17 997.22 997.90 998.56 998.75 998.81 999.50 1000.38 1000.96 1001.48 1001.84 1001.93 1003.01 1003.72 1004.58 1004.89 1005.31 1006.10 1007.04 1007.90 1008.81 1009.50 1010.45
1012.16 1012.25 1011.72 1011.32 1010.79 1008.58 1005.78 1006.82 1008.61 1009.70 1007.10 1006.61 1006.63 1005.34 1004.15 1002.21 999.93 997.39 997.43 997.51 997.30 997.05 997.15 997.56 997.92 997.71 997.98 998.88 999.61 1000.08 1000.33 999.78 1001.58 1002.31 1003.33 1004.54 1004.94 1005.44 1006.19 1006.86 1007.69 1008.46 1009.29 1010.14
1011.72 1010.84 1010.55 1010.14 1008.45 1006.64 1008.21 1010.46 1012.13 1012.44 1011.48 1010.22 1010.03 1008.47 1007.78 1005.22 1002.32 1000.08 998.67 997.40 996.62 996.74 996.95 997.31 997.50 997.47 997.85 998.39 998.64 999.24 998.91 1000.35 1001.47 1002.42 1002.97 1004.26 1005.29 1005.49 1006.25 1007.08 1007.59 1008.40 1009.16 1009.72
1012.34 1012.75 1012.20 1011.63 1008.72 1009.73 1010.56 1012.26 1013.44 1014.09 1013.45 1012.73 1012.17 1011.06 1009.54 1007.49 1005.44 1003.04 1001.05 1000.11 998.89 998.40 998.05 997.88 997.90 997.94 998.02 998.15 998.54 998.41 999.37 1000.18 1001.05 1002.52 1003.15 1004.05 1004.92 1005.84 1005.95 1006.84 1007.46 1007.86 1008.43 1009.14
1016.07 1015.70 1015.44 1013.84 1012.63 1012.72 1012.44 1013.61 1015.11 1015.09 1014.70 1013.57 1012.66 1012.20 1010.65 1009.09 1007.40 1005.89 1003.32 1001.82 1001.22 1000.11 999.34 999.03 998.56 998.16 997.92 998.23 998.59 999.12 999.48 1000.13 1001.41 1002.34 1002.97 1004.03 1004.66 1005.61 1005.91 1006.66 1007.22 1007.63 1008.15 1008.51
1019.37 1020.05 1019.71 1017.97 1018.72 1018.93 1016.86 1016.60 1017.02 1016.50 1015.79 1015.15 1013.72 1011.73 1011.54 1010.73 1008.99 1007.24 1005.53 1004.25 1003.04 1000.61 1000.59 999.88 999.48 999.48 999.24 999.39 999.65 999.96 1000.01 1000.30 1001.33 1002.44 1003.09 1003.76 1004.25 1005.45 1005.74 1006.48 1007.50 1008.18 1008.81 1008.89
Wind_Speed
7 7 13 14 12 20 14 18 18 12 8 8 15 18 19 18 17 20 20 17 18 20 19 15 17 19 19 19 19 20 18 18 13 11 11 11 12 10 10 10 13 14 13 14
8 20 25 16 10 17 13 11 14 9 6 8 12 19 20 21 18 21 22 21 23 19 17 18 16 17 21 21 21 20 20 20 17 13 12 10 11 11 11 10 13 15 15 15
20 19 13 20 16 14 17 18 9 11 3 9 9 21 26 19 20 22 23 23 24 23 21 20 19 20 20 22 24 22 23 23 20 20 12 11 8 9 10 11 12 13 16 15
17 24 15 10 18 18 14 13 12 12 4 7 1 11 19 13 14 15 19 21 23 24 21 21 20 20 22 22 21 23 23 24 22 23 16 19 14 14 12 12 11 11 16 16
12 17 13 18 23 21 8 13 19 20 18 11 14 8 18 15 19 20 20 19 21 21 22 23 23 21 23 21 21 21 23 22 22 20 20 16 18 12 11 11 13 14 13 17
19 5 13 24 15 13 11 6 2 3 4 9 22 15 11 19 20 20 22 21 19 19 20 22 22 20 19 17 18 18 23 23 22 22 23 22 22 18 13 13 11 11 11 11
26 23 17 7 17 22 18 7 2 5 7 11 5 16 22 16 18 19 19 17 17 15 15 17 20 18 18 19 20 18 22 22 22 22 22 23 22 20 21 17 13 13 11 10
19 14 26 21 26 16 26 22 10 10 8 12 6 13 10 20 23 22 21 18 14 14 12 15 17 16 18 18 20 22 22 22 22 24 24 21 22 15 15 17 13 12 11 11
16 19 6 15 21 24 20 19 25 14 2 5 6 18 10 9 12 14 18 18 19 17 15 17 16 16 17 16 19 21 22 21 22 23 21 21 20 20 18 20 16 12 13 12
8 10 19 11 16 14 12 6 7 5 10 14 12 22 15 8 16 17 18 18 17 15 13 13 14 14 13 15 18 20 21 21 21 21 19 18 19 20 18 15 17 17 15 15
10 8 1 12 19 21 9 12 9 4 4 11 14 15 17 19 18 19 17 12 12 12 12 13 13 13 13 12 13 16 17 19 18 18 18 18 17 17 17 16 16 16 15 15
21 3 11 16 8 11 23 15 17 10 7 7 8 17 2 4 8 14 10 6 9 11 12 11 11 10 10 11 12 15 14 16 17 16 16 17 17 16 16 16 16 15 16 15
11 11 10 4 3 8 14 24 23 13 4 15 8 14 9 13 8 8 11 12 8 7 9 8 8 9 11 11 11 13 14 15 15 16 16 17 17 17 16 16 15 15 14 13
14 11 13 17 2 2 4 18 21 20 9 10 15 28 29 17 8 11 11 11 9 7 7 7 7 7 8 8 9 11 13 12 12 14 16 17 16 15 15 15 14 13 13 13
7 4 10 15 14 12 12 14 12 20 23 15 22 29 34 25 21 21 19 13 9 11 9 8 6 7 8 8 10 9 11 12 12 13 14 15 13 13 13 12 12 12 12 11
12 5 8 7 15 15 19 18 20 23 19 20 31 34 36 30 19 19 18 18 22 22 18 9 10 8 9 10 11 9 10 11 12 13 14 11 10 11 11 10 9 8 8 8
5 5 3 7 9 11 13 23 22 23 23 20 20 37 37 28 24 21 19 18 21 21 20 17 16 11 10 11 10 11 10 8 12 12 10 8 7 8 7 7 7 7 8 6
5 3 2 4 1 11 13 7 14 21 22 24 28 35 37 31 29 20 20 22 24 20 18 15 16 17 9 7 10 10 8 8 7 8 8 8 9 8 7 7 7 6 6 7
14 6 5 5 7 15 21 17 11 10 20 20 27 34 36 38 15 28 33 30 28 21 22 22 17 15 9 11 10 9 9 9 9 10 10 11 11 10 10 9 10 6 6 4
12 13 7 3 5 9 29 2 12 13 21 18 18 28 33 30 15 29 29 24 28 26 23 20 15 9 10 8 9 10 10 11 14 12 11 9 10 12 12 11 10 6 7 6
5 6 14 13 8 13 16 6 3 10 25 8 15 24 26 22 21 34 23 21 20 22 23 18 14 14 17 10 11 13 12 16 13 7 8 9 10 12 12 12 7 10 10 9
9 7 7 7 9 20 3 9 17 9 18 16 20 19 21 20 26 31 26 26 24 25 19 12 13 16 12 11 13 14 16 15 10 12 10 9 8 7 8 11 10 10 11 11
7 10 5 9 7 13 10 11 8 12 12 17 19 23 22 25 24 22 22 23 21 19 14 8 14 14 9 10 14 15 14 10 11 11 11 10 8 9 10 11 11 10 10 10
6 7 8 9 18 16 15 5 12 20 17 19 18 22 22 24 24 23 16 13 12 9 9 4 8 10 10 9 10 11 8 11 13 11 11 11 11 9 10 7 8 9 10 9
4 7 4 10 9 20 8 13 21 25 21 23 23 20 24 22 22 20 19 15 12 10 7 5 8 8 6 5 6 5 9 12 11 11 11 10 8 9 9 7 6 7 4 8
5 5 4 8 12 8 18 19 27 20 23 22 23 27 20 21 21 20 18 13 13 10 9 6 5 3 2 3 5 5 7 10 11 10 8 8 9 8 8 8 7 9 8 10
Wind_Direction
189 211 212 216 219 231 260 234 244 238 221 218 242 249 255 259 251 254 254 252 246 237 236 227 215 210 209 210 204 207 205 206 197 202 199 207 212 210 213 217 216 213 214 212
193 224 224 217 229 221 211 205 226 254 226 226 262 265 263 259 254 248 251 252 250 242 241 229 218 208 208 208 209 207 206 206 200 200 203 207 210 220 215 214 217 216 214 215
226 232 227 219 219 225 203 213 190 239 195 235 277 273 266 252 245 247 248 246 247 245 232 227 219 210 210 210 209 208 206 205 204 206 202 205 214 220 215 217 215 214 215 215
241 239 234 204 227 218 240 213 221 235 254 256 167 287 271 264 241 238 247 242 244 244 237 235 230 215 209 213 211 209 209 207 204 202 202 201 205 207 213 215 216 215 215 218
216 213 197 212 214 210 257 237 212 221 232 246 234 259 267 265 259 257 255 244 242 241 241 234 230 222 214 208 205 207 209 210 205 201 202 200 212 218 215 217 216 213 212 215
242 215 225 228 228 225 155 125 285 148 227 235 233 219 242 252 256 255 252 249 246 241 237 237 234 229 224 215 206 205 209 210 205 203 203 204 210 211 209 214 210 212 213 213
221 228 224 222 210 204 226 167 231 224 207 240 238 217 241 257 249 253 257 253 245 248 247 240 235 228 222 210 205 204 207 211 206 205 207 210 212 210 213 210 209 212 213 212
213 214 216 210 220 204 212 210 209 227 211 246 140 232 250 224 244 245 245 254 260 255 247 239 235 228 224 215 208 206 207 209 205 206 210 210 211 214 215 214 212 216 215 212
205 231 190 198 213 218 207 219 226 269 4 293 224 257 268 215 240 247 247 248 248 251 242 240 237 230 222 221 216 211 211 212 208 208 209 211 211 213 214 216 216 214 215 218
219 248 224 200 219 234 225 216 198 209 223 241 233 253 252 211 240 242 255 255 254 259 262 254 249 237 224 220 222 218 216 212 210 208 209 210 210 214 214 212 215 214 216 216
230 239 125 191 202 206 187 216 217 230 210 231 245 250 255 249 230 232 235 254 269 264 261 262 253 239 225 217 219 221 218 216 211 208 208 210 211 211 214 214 212 214 214 210
206 261 252 246 265 286 219 212 218 230 218 237 273 267 232 238 264 240 244 262 271 270 269 273 271 254 223 208 211 218 214 214 212 207 205 208 209 208 209 214 214 211 213 213
174 222 240 256 260 222 230 219 216 241 283 206 218 252 222 259 237 235 257 262 256 279 283 274 273 251 237 203 206 216 216 217 213 207 202 204 207 206 207 209 209 208 209 208
186 221 217 229 202 40 192 222 224 222 243 236 240 264 260 245 264 292 281 248 260 273 278 279 264 249 251 249 223 211 220 214 209 206 206 205 204 202 202 207 205 203 201 202
199 225 236 255 287 297 262 270 266 243 234 228 242 246 261 252 253 260 267 291 287 276 259 258 270 254 234 241 240 231 220 210 203 204 208 209 201 200 201 199 194 193 194 201
198 256 224 242 248 254 261 255 256 232 233 261 252 258 258 264 276 264 262 261 265 266 271 253 239 231 234 219 227 228 221 209 196 202 208 203 191 185 186 184 179 177 176 171
178 197 212 261 222 236 252 241 239 245 239 219 250 247 269 274 263 262 265 262 265 267 271 282 281 250 222 227 211 221 223 205 201 198 193 173 169 173 176 161 156 165 166 143
162 169 213 243 12 249 242 270 241 240 234 232 244 261 266 259 262 271 266 255 256 259 264 259 260 267 235 210 214 205 188 199 201 200 187 174 174 172 154 154 161 148 147 155
214 192 246 243 234 288 287 248 225 237 261 233 240 254 263 270 293 265 252 248 256 257 259 253 253 259 225 217 207 194 178 187 192 201 193 180 171 160 160 165 165 159 150 147
217 226 233 224 250 259 260 355 211 233 276 231 239 254 261 272 262 259 258 247 248 243 241 252 235 227 227 219 166 173 195 189 207 196 192 176 166 161 164 159 154 140 146 134
164 210 218 230 238 263 274 150 185 213 255 341 252 253 259 260 247 264 278 267 255 252 247 238 230 225 233 184 170 194 184 208 201 166 156 172 171 165 163 152 147 149 144 138
192 193 210 229 222 258 69 204 221 332 320 359 353 324 330 310 281 271 266 267 260 257 254 240 224 231 230 179 179 199 200 202 169 163 161 174 165 152 151 150 146 149 146 148
239 214 231 218 219 263 57 89 51 2 336 333 332 320 321 310 304 320 303 277 271 264 253 215 221 235 213 189 191 196 215 157 156 163 158 157 154 151 152 157 155 153 159 162
247 4 252 282 255 283 334 135 16 357 335 326 324 316 314 312 314 310 316 317 310 302 272 235 221 229 221 192 198 219 147 151 149 163 157 153 157 163 152 157 165 166 171 171
335 339 353 271 285 330 200 22 358 333 333 327 324 322 315 317 307 309 313 315 308 299 305 283 251 241 229 176 171 139 145 146 156 161 153 158 155 166 151 152 164 171 160 177
16 358 276 285 348 310 294 319 327 332 328 326 322 320 319 316 310 318 308 308 308 343 341 332 348 338 112 128 127 133 145 148 150 154 156 161 152 159 148 138 113 94 120 116